QPF
0.07 0.05 0.02 0.02 0.01 0.01 0.02 0.03 0.04 0.05 0.06 0.05 0.03 0.03 0.03 0.04 0.05 0.11 0.20 0.11 0.11 0.19 0.05 0.01 0.01 0.02 0.06 0.08 0.05 0.01 0.08 0.05 0.04 0.04 0.02 0.01 0.00 0.00 0.00 0.00 0.00 0.00 0.00 0.01 0.01 0.01 0.00 0.00 0.00 0.00 0.00 0.00 0.00 0.00
0.06 0.03 0.02 0.02 0.02 0.03 0.05 0.06 0.06 0.06 0.05 0.04 0.06 0.06 0.05 0.05 0.05 0.11 0.26 0.17 0.12 0.18 0.07 0.00 0.02 0.02 0.01 0.01 0.00 0.02 0.01 0.00 0.00 0.00 0.00 0.00 0.00 0.00 0.00 0.00 0.00 0.00 0.00 0.00 0.00 0.00 0.00 0.00 0.00 0.00 0.00 0.00 0.00 0.00
0.03 0.02 0.01 0.01 0.02 0.02 0.02 0.03 0.05 0.07 0.09 0.07 0.03 0.03 0.04 0.03 0.03 0.10 0.18 0.10 0.27 0.33 0.14 0.03 0.01 0.01 0.01 0.00 0.01 0.01 0.00 0.00 0.00 0.00 0.00 0.00 0.00 0.00 0.00 0.00 0.00 0.00 0.00 0.00 0.00 0.00 0.00 0.00 0.00 0.00 0.00 0.00 0.00 0.00
0.09 0.08 0.05 0.05 0.05 0.03 0.02 0.01 0.02 0.04 0.06 0.06 0.06 0.03 0.02 0.02 0.03 0.08 0.12 0.07 0.15 0.18 0.10 0.08 0.01 0.00 0.00 0.00 0.01 0.00 0.00 0.00 0.01 0.02 0.02 0.00 0.00 0.00 0.00 0.00 0.00 0.00 0.00 0.00 0.00 0.00 0.00 0.00 0.00 0.00 0.00 0.00 0.00 0.00
0.04 0.02 0.01 0.01 0.01 0.02 0.01 0.01 0.02 0.02 0.04 0.05 0.04 0.04 0.03 0.03 0.04 0.08 0.14 0.05 0.03 0.04 0.03 0.00 0.00 0.00 0.00 0.00 0.00 0.00 0.00 0.00 0.01 0.03 0.08 0.02 0.00 0.00 0.00 0.00 0.00 0.00 0.00 0.00 0.00 0.00 0.00 0.00 0.00 0.00 0.00 0.00 0.00 0.00
0.03 0.00 0.00 0.01 0.01 0.01 0.01 0.01 0.01 0.00 0.01 0.02 0.03 0.04 0.05 0.04 0.07 0.22 0.52 0.23 0.01 0.01 0.06 0.02 0.00 0.00 0.00 0.00 0.00 0.00 0.01 0.02 0.02 0.06 0.04 0.00 0.00 0.01 0.00 0.00 0.00 0.00 0.00 0.00 0.00 0.00 0.00 0.00 0.00 0.00 0.00 0.00 0.00 0.01
0.01 0.01 0.01 0.01 0.01 0.01 0.00 0.00 0.00 0.00 0.01 0.01 0.01 0.04 0.05 0.06 0.08 0.23 0.18 0.09 0.02 0.03 0.09 0.01 0.00 0.00 0.00 0.00 0.00 0.01 0.02 0.17 0.18 0.14 0.04 0.01 0.01 0.02 0.02 0.00 0.00 0.00 0.00 0.00 0.00 0.00 0.00 0.00 0.00 0.00 0.00 0.00 0.00 0.00
0.00 0.02 0.06 0.09 0.09 0.09 0.03 0.02 0.01 0.01 0.01 0.02 0.01 0.05 0.06 0.07 0.14 0.11 0.06 0.00 0.00 0.06 0.08 0.00 0.00 0.01 0.01 0.00 0.00 0.01 0.04 0.08 0.16 0.12 0.18 0.04 0.02 0.04 0.02 0.00 0.00 0.00 0.00 0.01 0.04 0.06 0.06 0.04 0.01 0.00 0.00 0.00 0.00 0.00
0.02 0.07 0.11 0.14 0.11 0.10 0.03 0.01 0.02 0.04 0.04 0.04 0.05 0.13 0.26 0.21 0.25 0.12 0.03 0.02 0.00 0.01 0.01 0.00 0.01 0.07 0.05 0.01 0.01 0.02 0.04 0.05 0.02 0.02 0.07 0.16 0.13 0.04 0.02 0.00 0.00 0.00 0.00 0.00 0.00 0.00 0.01 0.02 0.01 0.00 0.00 0.00 0.00 0.00
0.02 0.05 0.08 0.09 0.07 0.10 0.14 0.15 0.16 0.12 0.11 0.10 0.17 0.30 0.33 0.15 0.11 0.05 0.07 0.03 0.02 0.00 0.00 0.00 0.00 0.08 0.12 0.11 0.06 0.02 0.03 0.03 0.03 0.04 0.04 0.02 0.03 0.02 0.00 0.00 0.00 0.01 0.01 0.00 0.00 0.00 0.00 0.01 0.00 0.00 0.00 0.00 0.00 0.00
0.03 0.03 0.04 0.06 0.05 0.05 0.06 0.05 0.07 0.08 0.06 0.09 0.15 0.19 0.14 0.08 0.04 0.04 0.05 0.04 0.02 0.01 0.00 0.02 0.03 0.08 0.06 0.23 0.09 0.01 0.01 0.01 0.01 0.07 0.08 0.03 0.04 0.02 0.00 0.00 0.00 0.00 0.01 0.01 0.01 0.02 0.05 0.06 0.05 0.02 0.02 0.02 0.02 0.02
0.01 0.00 0.01 0.03 0.03 0.03 0.04 0.04 0.02 0.01 0.01 0.01 0.04 0.06 0.09 0.06 0.04 0.05 0.02 0.04 0.03 0.01 0.03 0.07 0.11 0.18 0.09 0.30 0.14 0.01 0.01 0.00 0.02 0.02 0.01 0.01 0.01 0.00 0.00 0.00 0.00 0.01 0.02 0.02 0.02 0.02 0.04 0.05 0.06 0.06 0.04 0.04 0.04 0.04
0.00 0.00 0.00 0.01 0.02 0.04 0.05 0.03 0.00 0.00 0.00 0.00 0.00 0.00 0.01 0.01 0.00 0.01 0.01 0.02 0.02 0.02 0.03 0.06 0.14 0.15 0.06 0.10 0.05 0.01 0.00 0.01 0.01 0.00 0.01 0.01 0.01 0.00 0.00 0.00 0.01 0.03 0.05 0.07 0.07 0.06 0.06 0.06 0.05 0.04 0.03 0.03 0.03 0.03
0.00 0.00 0.00 0.00 0.00 0.00 0.00 0.00 0.00 0.00 0.00 0.00 0.00 0.00 0.00 0.00 0.00 0.01 0.01 0.01 0.01 0.01 0.01 0.03 0.03 0.01 0.02 0.00 0.01 0.01 0.01 0.00 0.00 0.00 0.00 0.01 0.01 0.00 0.01 0.01 0.01 0.02 0.03 0.03 0.04 0.04 0.04 0.03 0.03 0.03 0.03 0.04 0.02 0.03
0.00 0.00 0.00 0.00 0.00 0.00 0.00 0.00 0.00 0.00 0.00 0.00 0.00 0.00 0.00 0.01 0.01 0.02 0.02 0.01 0.01 0.02 0.01 0.01 0.00 0.00 0.00 0.01 0.00 0.00 0.00 0.00 0.00 0.00 0.01 0.01 0.01 0.01 0.02 0.02 0.02 0.03 0.03 0.03 0.04 0.03 0.03 0.03 0.02 0.03 0.04 0.04 0.03 0.03
0.00 0.00 0.00 0.00 0.00 0.00 0.00 0.00 0.00 0.00 0.00 0.00 0.00 0.01 0.01 0.01 0.01 0.01 0.01 0.01 0.02 0.03 0.02 0.01 0.00 0.00 0.01 0.02 0.00 0.00 0.00 0.00 0.00 0.01 0.01 0.01 0.01 0.02 0.02 0.03 0.03 0.04 0.04 0.05 0.05 0.05 0.05 0.05 0.04 0.05 0.05 0.05 0.05 0.05
0.00 0.00 0.00 0.00 0.00 0.00 0.00 0.00 0.00 0.00 0.00 0.00 0.00 0.01 0.01 0.01 0.01 0.01 0.01 0.02 0.02 0.02 0.01 0.01 0.00 0.00 0.00 0.00 0.00 0.00 0.00 0.00 0.01 0.02 0.03 0.03 0.02 0.03 0.03 0.03 0.05 0.06 0.06 0.06 0.05 0.04 0.03 0.03 0.03 0.02 0.01 0.02 0.01 0.00
0.00 0.00 0.00 0.00 0.00 0.00 0.00 0.00 0.00 0.00 0.00 0.00 0.00 0.01 0.01 0.02 0.03 0.03 0.04 0.05 0.04 0.03 0.03 0.01 0.00 0.00 0.00 0.00 0.00 0.01 0.02 0.02 0.03 0.04 0.04 0.04 0.03 0.03 0.04 0.04 0.04 0.04 0.03 0.02 0.01 0.01 0.00 0.00 0.00 0.00 0.00 0.00 0.00 0.00
0.00 0.00 0.00 0.00 0.00 0.00 0.00 0.00 0.00 0.00 0.00 0.00 0.01 0.02 0.03 0.05 0.06 0.05 0.04 0.04 0.02 0.02 0.01 0.00 0.00 0.01 0.01 0.01 0.01 0.04 0.05 0.03 0.03 0.03 0.03 0.04 0.04 0.03 0.03 0.03 0.02 0.01 0.01 0.00 0.00 0.00 0.00 0.00 0.00 0.00 0.00 0.00 0.00 0.00
0.00 0.00 0.00 0.00 0.00 0.00 0.00 0.00 0.00 0.00 0.00 0.00 0.03 0.03 0.03 0.04 0.03 0.02 0.01 0.00 0.00 0.00 0.00 0.01 0.03 0.03 0.03 0.05 0.03 0.03 0.03 0.02 0.00 0.01 0.02 0.02 0.02 0.02 0.01 0.00 0.00 0.00 0.00 0.00 0.00 0.00 0.00 0.00 0.00 0.00 0.00 0.00 0.00 0.00
0.00 0.00 0.00 0.00 0.00 0.00 0.00 0.00 0.00 0.00 0.00 0.01 0.00 0.00 0.01 0.00 0.00 0.00 0.00 0.00 0.00 0.00 0.02 0.04 0.05 0.06 0.03 0.03 0.02 0.01 0.01 0.01 0.00 0.00 0.00 0.01 0.01 0.00 0.00 0.00 0.00 0.00 0.00 0.00 0.00 0.00 0.00 0.00 0.00 0.00 0.00 0.00 0.00 0.00
0.00 0.00 0.00 0.00 0.00 0.00 0.00 0.00 0.00 0.00 0.00 0.00 0.00 0.00 0.00 0.00 0.00 0.00 0.00 0.00 0.01 0.02 0.03 0.02 0.02 0.01 0.01 0.01 0.02 0.01 0.00 0.00 0.00 0.00 0.00 0.00 0.00 0.00 0.00 0.00 0.00 0.00 0.00 0.00 0.00 0.00 0.00 0.00 0.00 0.00 0.00 0.00 0.00 0.00
0.00 0.00 0.00 0.00 0.00 0.00 0.00 0.01 0.00 0.00 0.00 0.00 0.00 0.00 0.00 0.00 0.00 0.00 0.00 0.01 0.03 0.04 0.03 0.01 0.01 0.00 0.00 0.01 0.00 0.00 0.00 0.00 0.00 0.00 0.00 0.00 0.00 0.00 0.00 0.00 0.00 0.00 0.00 0.00 0.00 0.00 0.00 0.00 0.00 0.00 0.00 0.00 0.00 0.00
0.00 0.00 0.00 0.00 0.00 0.00 0.00 0.00 0.00 0.00 0.00 0.00 0.00 0.00 0.00 0.00 0.00 0.00 0.00 0.00 0.02 0.03 0.01 0.01 0.01 0.00 0.00 0.00 0.00 0.00 0.00 0.00 0.00 0.00 0.00 0.00 0.00 0.00 0.00 0.00 0.00 0.00 0.00 0.00 0.00 0.00 0.00 0.00 0.00 0.00 0.00 0.00 0.00 0.00
0.00 0.00 0.00 0.00 0.00 0.00 0.00 0.00 0.00 0.00 0.00 0.00 0.00 0.00 0.00 0.00 0.00 0.00 0.00 0.00 0.01 0.01 0.01 0.00 0.00 0.00 0.00 0.00 0.00 0.00 0.00 0.00 0.00 0.00 0.00 0.00 0.00 0.00 0.00 0.00 0.00 0.00 0.00 0.00 0.00 0.00 0.00 0.00 0.00 0.00 0.00 0.00 0.00 0.00
0.00 0.00 0.00 0.00 0.00 0.00 0.00 0.00 0.00 0.00 0.00 0.00 0.00 0.00 0.00 0.00 0.00 0.00 0.00 0.00 0.00 0.00 0.00 0.00 0.00 0.00 0.00 0.00 0.00 0.00 0.00 0.00 0.00 0.00 0.00 0.00 0.00 0.00 0.00 0.00 0.00 0.00 0.00 0.00 0.00 0.00 0.00 0.00 0.00 0.00 0.00 0.00 0.00 0.00
0.00 0.00 0.00 0.00 0.00 0.00 0.00 0.00 0.00 0.00 0.00 0.00 0.00 0.00 0.00 0.00 0.00 0.00 0.01 0.00 0.00 0.00 0.00 0.00 0.00 0.00 0.00 0.00 0.00 0.00 0.00 0.00 0.00 0.00 0.00 0.00 0.00 0.00 0.00 0.00 0.00 0.00 0.00 0.00 0.00 0.00 0.00 0.00 0.00 0.00 0.00 0.00 0.00 0.00
0.00 0.00 0.00 0.00 0.00 0.00 0.00 0.00 0.00 0.00 0.00 0.00 0.00 0.00 0.00 0.00 0.00 0.01 0.01 0.01 0.00 0.00 0.00 0.00 0.00 0.00 0.00 0.00 0.00 0.00 0.00 0.00 0.00 0.00 0.00 0.00 0.00 0.00 0.00 0.00 0.00 0.00 0.00 0.00 0.00 0.00 0.00 0.00 0.00 0.00 0.00 0.00 0.00 0.00
0.00 0.00 0.00 0.00 0.00 0.00 0.00 0.00 0.00 0.00 0.00 0.00 0.00 0.00 0.00 0.01 0.01 0.01 0.01 0.00 0.00 0.00 0.00 0.00 0.00 0.00 0.00 0.00 0.00 0.00 0.00 0.00 0.00 0.00 0.00 0.00 0.00 0.00 0.00 0.00 0.00 0.00 0.00 0.00 0.00 0.00 0.00 0.00 0.00 0.00 0.00 0.00 0.00 0.00
0.00 0.00 0.00 0.00 0.00 0.00 0.01 0.01 0.00 0.00 0.00 0.00 0.00 0.00 0.01 0.02 0.03 0.02 0.01 0.00 0.00 0.00 0.00 0.00 0.00 0.00 0.00 0.00 0.00 0.00 0.00 0.00 0.00 0.00 0.00 0.00 0.00 0.00 0.00 0.00 0.00 0.00 0.00 0.00 0.00 0.00 0.00 0.00 0.00 0.00 0.00 0.00 0.00 0.00
0.00 0.00 0.00 0.00 0.00 0.01 0.00 0.00 0.00 0.00 0.00 0.00 0.00 0.00 0.00 0.01 0.01 0.01 0.00 0.00 0.00 0.00 0.00 0.00 0.00 0.00 0.00 0.00 0.00 0.00 0.00 0.00 0.00 0.00 0.00 0.00 0.00 0.00 0.00 0.00 0.00 0.00 0.00 0.00 0.00 0.00 0.00 0.00 0.00 0.00 0.00 0.00 0.00 0.00
0.00 0.00 0.00 0.00 0.00 0.00 0.00 0.00 0.00 0.00 0.00 0.00 0.00 0.00 0.00 0.00 0.00 0.00 0.01 0.00 0.00 0.00 0.00 0.00 0.00 0.00 0.00 0.00 0.00 0.00 0.00 0.00 0.00 0.00 0.00 0.00 0.00 0.00 0.00 0.00 0.00 0.00 0.00 0.00 0.00 0.00 0.00 0.00 0.00 0.00 0.00 0.00 0.00 0.00
0.00 0.00 0.00 0.00 0.00 0.00 0.00 0.00 0.00 0.00 0.00 0.00 0.00 0.00 0.00 0.00 0.00 0.00 0.00 0.00 0.00 0.00 0.00 0.00 0.00 0.00 0.00 0.00 0.00 0.00 0.00 0.00 0.00 0.00 0.00 0.00 0.00 0.00 0.00 0.00 0.00 0.00 0.00 0.00 0.00 0.00 0.00 0.00 0.00 0.00 0.00 0.00 0.00 0.00
MSLP
1002.12 1001.60 1001.44 1001.72 1001.97 1002.24 1002.45 1002.64 1002.81 1003.00 1003.15 1003.43 1003.79 1004.13 1004.93 1006.04 1007.08 1008.28 1008.20 1008.79 1009.38 1009.39 1009.01 1008.47 1008.21 1008.83 1009.41 1009.72 1009.63 1010.07 1011.14 1011.38 1011.70 1011.88 1011.80 1011.41 1011.09 1010.44 1009.90 1009.52 1009.51 1009.52 1009.84 1009.82 1009.70 1008.97 1007.52 1005.96 1005.86 1005.73 1005.17 1004.78 1004.48 1004.10
999.98 999.56 998.97 999.46 1000.02 1000.30 1000.55 1000.79 1001.03 1001.24 1001.54 1001.76 1001.95 1001.93 1003.11 1004.45 1005.51 1006.50 1006.91 1007.48 1008.61 1008.99 1008.55 1008.14 1007.66 1007.72 1007.81 1008.16 1008.89 1009.44 1009.17 1009.52 1010.10 1010.62 1010.80 1010.60 1010.61 1010.21 1009.51 1009.19 1009.02 1008.92 1008.33 1008.27 1008.21 1007.02 1006.18 1005.98 1005.75 1005.64 1005.70 1005.41 1004.88 1004.47
998.61 998.24 998.10 998.15 998.39 998.69 998.90 999.15 999.46 999.69 999.99 1000.35 1000.77 1001.35 1002.10 1003.08 1004.07 1005.14 1005.72 1006.09 1007.63 1008.23 1008.35 1008.14 1007.71 1007.46 1007.76 1007.77 1007.90 1008.58 1008.69 1008.72 1009.05 1009.05 1009.64 1009.76 1009.72 1009.50 1009.11 1008.78 1008.21 1008.14 1007.84 1007.82 1007.61 1006.47 1006.03 1005.92 1006.27 1006.84 1006.56 1006.06 1005.56 1004.93
997.60 997.14 996.90 996.78 996.88 997.07 997.30 997.58 997.90 998.28 998.72 999.23 999.87 1000.56 1001.34 1002.21 1003.26 1004.35 1005.10 1005.62 1006.64 1007.31 1007.53 1007.50 1007.28 1007.09 1006.88 1007.42 1007.80 1007.81 1007.95 1008.08 1008.46 1009.24 1009.59 1009.63 1009.45 1008.74 1008.60 1008.08 1008.00 1007.58 1007.72 1007.65 1007.15 1006.83 1006.50 1006.45 1007.35 1007.69 1007.24 1006.98 1006.63 1006.19
996.42 995.68 995.07 995.29 995.49 995.59 995.77 996.08 996.50 996.91 997.31 997.72 998.45 999.55 1000.44 1001.42 1002.60 1003.97 1004.96 1005.34 1005.98 1006.25 1006.91 1007.21 1006.66 1006.50 1006.61 1007.12 1007.55 1007.64 1007.97 1008.21 1008.37 1009.14 1009.34 1009.15 1008.77 1008.86 1008.78 1008.64 1008.22 1007.97 1007.94 1008.07 1007.93 1008.54 1008.49 1008.17 1008.09 1008.40 1008.20 1008.05 1007.88 1007.73
995.58 995.12 994.74 994.55 994.38 994.24 994.31 994.61 995.02 995.46 995.96 996.56 997.51 998.53 999.64 1000.69 1002.05 1003.59 1004.19 1004.89 1005.27 1005.87 1006.89 1007.09 1006.38 1006.17 1006.19 1006.61 1006.90 1007.18 1007.50 1008.02 1008.46 1008.58 1008.78 1008.74 1008.23 1008.55 1008.95 1008.93 1008.82 1009.07 1009.22 1009.12 1009.13 1009.34 1009.15 1008.95 1008.98 1009.31 1009.14 1009.17 1009.01 1009.13
995.49 995.04 994.55 994.06 993.71 993.54 993.60 993.82 994.18 994.66 995.34 996.05 996.89 997.83 998.96 1000.26 1001.55 1002.71 1003.12 1002.86 1004.13 1005.72 1006.74 1006.99 1006.35 1005.88 1005.96 1006.51 1006.94 1007.19 1007.36 1007.90 1008.04 1008.20 1008.53 1008.68 1008.40 1008.37 1009.31 1009.73 1010.45 1010.61 1010.65 1010.35 1010.06 1009.80 1009.18 1009.21 1009.62 1010.00 1009.95 1009.95 1010.03 1010.09
995.74 994.98 994.43 994.07 993.58 993.19 993.13 993.24 993.70 994.28 994.96 995.81 996.77 997.68 998.83 1000.35 1001.67 1002.56 1002.38 1002.79 1003.72 1005.49 1006.35 1006.52 1006.24 1006.05 1005.81 1006.33 1006.79 1006.88 1007.26 1007.67 1007.80 1007.93 1008.46 1008.42 1008.76 1009.34 1010.15 1011.36 1011.88 1012.10 1011.88 1011.18 1011.06 1010.78 1010.62 1010.32 1010.36 1010.72 1010.84 1010.90 1010.93 1010.81
996.12 995.76 995.23 994.63 994.16 993.66 993.19 993.13 993.37 993.76 994.31 995.50 996.96 998.14 999.66 1000.81 1001.52 1002.00 1002.93 1003.50 1004.03 1005.17 1005.55 1005.98 1006.00 1005.77 1005.59 1005.76 1006.05 1006.63 1006.90 1007.32 1007.37 1007.66 1008.27 1008.95 1009.52 1010.71 1012.15 1012.67 1012.97 1013.17 1013.05 1012.59 1012.04 1011.45 1011.16 1011.05 1011.27 1011.77 1012.00 1011.95 1012.03 1012.38
996.63 996.32 995.91 995.28 994.94 994.40 993.91 993.49 993.80 994.06 994.86 996.46 997.88 999.29 1000.28 1000.83 1001.42 1002.26 1003.74 1004.09 1004.66 1005.04 1005.34 1005.59 1005.58 1005.59 1005.65 1005.48 1005.94 1006.55 1006.71 1007.09 1007.44 1008.20 1008.97 1009.94 1011.55 1012.90 1013.57 1014.00 1014.20 1014.21 1013.95 1013.53 1012.68 1012.41 1012.46 1012.25 1012.46 1012.87 1013.06 1013.30 1013.50 1013.71
997.21 996.94 996.71 996.23 995.65 995.54 995.33 995.41 995.65 995.83 996.37 997.62 998.49 999.10 1000.39 1001.32 1001.91 1002.65 1003.69 1004.22 1004.88 1005.23 1005.16 1005.16 1005.22 1005.13 1005.61 1005.31 1005.72 1006.06 1006.44 1007.08 1007.80 1008.90 1009.71 1011.35 1012.68 1013.86 1014.64 1014.78 1014.90 1014.85 1014.65 1014.40 1014.21 1014.15 1014.02 1013.82 1013.86 1014.06 1014.27 1014.72 1015.10 1015.37
997.69 997.51 997.38 997.01 996.54 996.34 996.37 996.18 996.12 996.77 997.47 998.17 998.93 1000.70 1001.80 1002.59 1003.10 1003.69 1004.45 1004.81 1004.81 1004.79 1004.86 1004.93 1004.91 1005.10 1005.12 1005.24 1005.34 1006.27 1006.49 1007.46 1008.62 1009.79 1010.91 1012.57 1014.17 1015.08 1015.48 1015.67 1015.71 1015.55 1015.47 1015.44 1015.43 1015.33 1015.21 1015.02 1015.16 1015.37 1015.77 1016.11 1016.46 1016.70
998.34 998.16 998.21 998.17 997.92 997.90 997.54 997.29 997.39 997.84 998.15 999.15 1000.48 1002.71 1003.94 1005.40 1005.75 1005.91 1005.91 1005.79 1005.62 1005.64 1005.49 1004.97 1005.02 1004.91 1004.76 1004.72 1005.03 1005.69 1006.98 1008.91 1009.89 1011.11 1012.82 1014.23 1015.21 1015.78 1016.11 1016.28 1016.44 1016.49 1016.49 1016.44 1016.63 1016.68 1016.68 1016.69 1016.72 1016.93 1017.34 1017.64 1017.80 1017.84
998.84 998.79 998.88 999.00 998.88 998.80 998.48 998.15 998.03 998.18 999.38 1001.98 1003.72 1006.14 1007.06 1008.14 1008.35 1008.34 1008.16 1007.64 1007.10 1006.50 1006.02 1005.45 1005.18 1005.31 1005.74 1005.90 1006.72 1007.58 1009.79 1010.37 1011.97 1013.27 1014.59 1015.62 1016.30 1016.76 1017.01 1017.19 1017.23 1017.44 1017.48 1017.70 1017.98 1018.06 1018.12 1018.21 1018.40 1018.61 1018.82 1019.13 1019.16 1019.42
999.20 999.17 999.19 999.54 999.48 999.31 999.10 999.13 999.21 999.75 1002.66 1005.28 1006.64 1008.85 1009.69 1010.01 1009.74 1009.33 1008.86 1008.21 1007.95 1007.39 1006.65 1006.23 1006.43 1006.79 1007.49 1008.20 1009.43 1010.42 1011.59 1013.15 1014.20 1015.25 1016.23 1016.94 1017.42 1017.66 1017.94 1018.18 1018.25 1018.43 1018.75 1019.08 1019.42 1019.48 1019.57 1019.68 1019.81 1020.10 1020.39 1020.51 1020.62 1020.70
999.42 999.37 999.87 999.76 999.74 999.73 999.83 999.97 1000.72 1002.16 1005.42 1007.92 1009.98 1010.82 1011.01 1010.88 1010.70 1010.22 1009.68 1009.06 1008.59 1007.99 1007.36 1007.23 1007.94 1008.90 1010.09 1010.81 1011.77 1013.26 1013.94 1015.22 1016.28 1016.90 1017.48 1018.01 1018.49 1018.89 1019.09 1019.16 1019.35 1019.66 1019.96 1020.27 1020.46 1020.58 1020.74 1020.94 1021.07 1021.28 1021.55 1021.66 1021.98 1022.17
999.91 1000.52 1000.38 1000.08 1000.00 1000.18 1000.15 1001.04 1003.06 1005.89 1008.49 1010.30 1011.87 1011.97 1012.04 1011.87 1011.72 1011.22 1010.53 1009.85 1009.26 1008.66 1008.76 1009.09 1009.96 1011.35 1011.91 1012.92 1014.42 1015.28 1016.19 1016.94 1017.36 1018.07 1018.63 1019.15 1019.51 1019.88 1020.08 1020.33 1020.66 1020.96 1021.20 1021.40 1021.51 1021.61 1021.69 1021.95 1022.05 1022.11 1022.32 1022.88 1023.11 1023.41
1000.58 1000.78 1000.38 1000.03 1000.04 1000.48 1001.75 1003.28 1005.90 1008.66 1011.14 1012.26 1012.48 1012.68 1012.48 1012.34 1012.04 1011.55 1010.97 1010.24 1009.47 1009.43 1010.12 1011.18 1011.94 1012.97 1014.11 1015.03 1016.03 1016.87 1017.53 1018.10 1018.71 1019.36 1019.97 1020.40 1020.70 1020.96 1021.21 1021.53 1021.92 1022.14 1022.33 1022.51 1022.62 1022.72 1022.80 1022.82 1022.86 1023.21 1023.53 1023.95 1024.27 1024.68
1000.72 1000.66 1000.38 1000.20 1000.13 1001.35 1004.02 1006.28 1007.47 1010.40 1012.47 1012.78 1012.99 1012.86 1012.73 1012.79 1012.56 1012.06 1011.42 1010.96 1010.58 1010.52 1011.28 1012.82 1014.13 1015.24 1016.12 1016.69 1017.16 1017.94 1018.61 1019.12 1019.82 1020.68 1021.22 1021.63 1021.88 1022.16 1022.48 1022.74 1023.02 1023.28 1023.44 1023.57 1023.71 1023.88 1024.08 1024.19 1024.32 1024.48 1024.79 1025.12 1025.48 1025.84
1000.78 1000.69 1000.58 1000.47 1000.36 1002.74 1005.83 1007.93 1008.62 1010.54 1012.47 1013.27 1013.27 1013.37 1013.55 1013.79 1013.52 1013.00 1012.44 1011.96 1011.69 1012.24 1014.01 1015.80 1017.14 1017.68 1017.80 1018.13 1018.50 1019.02 1019.63 1020.23 1020.63 1021.35 1022.30 1022.87 1023.20 1023.36 1023.64 1023.85 1024.16 1024.41 1024.56 1024.78 1024.92 1024.91 1025.00 1025.33 1025.75 1026.03 1026.27 1026.52 1026.70 1027.14
1000.95 1001.19 1001.09 1001.06 1002.42 1004.25 1007.07 1008.67 1009.95 1011.23 1012.40 1012.90 1013.20 1013.55 1014.18 1014.10 1014.05 1013.99 1013.76 1013.47 1013.77 1015.92 1017.70 1018.80 1019.08 1019.33 1019.38 1019.63 1019.94 1020.27 1020.78 1021.15 1021.66 1022.12 1023.03 1023.87 1024.40 1024.59 1024.89 1025.13 1025.31 1025.51 1025.68 1025.92 1026.04 1026.36 1026.47 1026.87 1027.31 1027.58 1027.76 1028.10 1028.21 1028.21
1001.87 1001.56 1002.00 1002.30 1004.31 1006.26 1008.21 1009.30 1010.06 1010.95 1011.74 1012.73 1013.26 1013.95 1014.84 1015.46 1015.60 1015.83 1016.15 1016.47 1018.19 1019.62 1019.85 1020.25 1020.45 1020.55 1020.82 1021.28 1021.64 1021.83 1022.24 1022.52 1023.11 1023.67 1024.25 1024.69 1025.20 1025.65 1026.00 1026.25 1026.31 1026.64 1026.89 1027.19 1027.45 1027.84 1028.10 1028.42 1028.62 1028.75 1028.83 1029.09 1028.98 1029.02
1002.16 1002.34 1003.44 1004.46 1006.43 1008.26 1010.39 1010.20 1010.60 1011.39 1012.20 1013.25 1013.99 1015.12 1016.21 1016.85 1017.16 1017.16 1018.67 1020.07 1021.01 1021.54 1021.57 1021.64 1021.87 1022.11 1022.30 1022.81 1022.94 1023.27 1023.53 1023.75 1024.38 1025.04 1025.52 1025.94 1026.43 1026.84 1027.02 1027.32 1027.54 1027.63 1027.96 1028.40 1028.64 1028.90 1029.18 1029.39 1029.51 1029.57 1029.70 1029.90 1029.82 1030.03
1003.26 1005.05 1006.49 1007.70 1008.55 1010.82 1011.12 1011.63 1011.82 1012.62 1013.33 1014.37 1015.57 1016.97 1017.77 1018.20 1018.50 1019.65 1021.43 1022.39 1022.92 1022.90 1022.83 1022.91 1023.00 1023.17 1023.53 1023.97 1024.35 1024.79 1025.11 1025.29 1025.66 1026.30 1026.60 1026.79 1027.22 1027.73 1027.97 1028.25 1028.49 1028.70 1028.90 1029.14 1029.40 1029.69 1029.93 1030.10 1030.09 1030.20 1030.32 1030.42 1030.53 1030.51
1005.60 1009.11 1009.58 1010.38 1010.78 1011.61 1012.87 1013.68 1014.04 1014.30 1015.76 1016.26 1017.36 1018.56 1019.10 1019.21 1020.43 1021.95 1023.05 1023.73 1024.04 1024.36 1024.35 1024.21 1024.24 1024.59 1024.95 1025.50 1025.88 1026.07 1026.15 1026.18 1026.47 1026.98 1027.52 1027.60 1027.93 1028.29 1028.66 1029.01 1029.28 1029.46 1029.67 1029.77 1030.05 1030.23 1030.48 1030.57 1030.61 1030.66 1030.71 1030.73 1030.67 1030.75
1009.75 1011.68 1011.82 1012.34 1012.76 1012.99 1014.34 1015.42 1015.82 1016.32 1016.75 1017.93 1019.14 1019.90 1020.24 1020.92 1022.29 1023.73 1024.08 1024.55 1024.83 1025.24 1025.54 1025.51 1025.38 1025.65 1026.07 1026.32 1026.64 1026.96 1027.14 1027.09 1027.29 1027.71 1028.31 1028.35 1028.56 1028.86 1029.30 1029.58 1029.79 1030.06 1030.26 1030.34 1030.44 1030.62 1030.76 1030.96 1031.02 1031.01 1031.00 1031.01 1030.97 1031.00
1012.57 1013.54 1013.85 1014.40 1014.35 1014.64 1016.07 1016.77 1017.13 1017.53 1018.59 1019.51 1020.39 1021.07 1021.84 1023.52 1024.50 1024.80 1024.89 1025.22 1025.54 1026.01 1026.14 1026.31 1026.21 1026.45 1027.02 1027.51 1027.86 1028.07 1028.09 1028.00 1028.11 1028.67 1029.11 1029.25 1029.41 1029.52 1029.76 1030.00 1030.23 1030.54 1030.62 1030.75 1030.81 1030.71 1030.73 1030.84 1030.94 1031.05 1031.13 1031.11 1031.04 1031.12
1014.42 1015.25 1015.99 1017.16 1017.08 1017.60 1018.41 1019.26 1019.89 1020.48 1020.69 1020.88 1021.35 1022.94 1023.87 1024.57 1025.35 1025.45 1025.58 1025.98 1026.35 1026.70 1027.07 1027.37 1027.50 1027.73 1028.16 1028.61 1028.79 1028.95 1029.24 1029.34 1029.43 1029.57 1029.78 1030.05 1030.28 1030.38 1030.49 1030.68 1030.96 1030.92 1031.05 1031.17 1031.08 1030.86 1030.70 1030.66 1030.77 1031.01 1031.18 1031.21 1031.11 1031.23
1016.42 1017.39 1017.82 1019.58 1019.62 1020.62 1021.88 1022.56 1022.71 1022.48 1022.49 1022.43 1023.10 1024.02 1024.81 1025.46 1026.11 1026.12 1026.43 1026.69 1027.10 1027.42 1027.94 1028.58 1029.33 1029.38 1029.48 1029.67 1029.92 1029.96 1030.05 1030.08 1030.16 1030.43 1030.47 1030.69 1031.02 1031.09 1031.19 1031.27 1031.34 1031.47 1031.57 1031.31 1031.16 1030.82 1030.12 1030.36 1030.53 1031.19 1031.42 1031.34 1031.35 1031.45
1018.34 1018.66 1019.82 1021.37 1022.64 1023.89 1024.17 1024.09 1023.99 1023.89 1023.49 1023.53 1023.60 1024.58 1025.63 1026.54 1026.88 1026.94 1027.19 1027.55 1027.87 1028.46 1029.05 1029.30 1029.72 1029.87 1030.39 1030.44 1030.79 1030.90 1031.03 1031.03 1030.84 1030.98 1030.98 1031.07 1031.22 1031.41 1031.56 1031.68 1031.82 1031.89 1031.95 1031.51 1031.22 1030.90 1030.86 1030.80 1030.85 1031.52 1031.74 1031.56 1031.50 1031.45
1019.01 1019.73 1021.17 1022.81 1024.31 1025.07 1025.03 1025.08 1024.40 1024.29 1024.74 1025.15 1025.74 1026.50 1027.34 1027.75 1027.74 1028.12 1028.36 1028.90 1029.03 1029.19 1029.52 1030.10 1030.42 1030.66 1030.83 1031.19 1031.23 1031.23 1031.31 1031.41 1031.29 1031.30 1031.33 1031.40 1031.56 1031.74 1031.93 1032.09 1032.36 1032.36 1032.09 1031.77 1031.61 1031.56 1031.51 1031.49 1031.49 1031.61 1031.71 1031.72 1031.71 1031.73
1020.11 1021.15 1022.09 1023.83 1025.00 1024.95 1025.20 1025.83 1025.92 1026.14 1026.82 1027.02 1027.83 1028.02 1028.59 1028.80 1029.06 1029.07 1029.46 1029.53 1029.73 1029.90 1030.21 1030.51 1030.81 1030.88 1031.09 1031.30 1031.36 1031.40 1031.46 1031.48 1031.68 1031.86 1031.88 1031.77 1031.78 1032.17 1032.34 1032.37 1032.59 1032.43 1032.12 1032.03 1031.99 1031.98 1032.00 1031.90 1031.86 1031.87 1031.90 1031.88 1031.88 1031.87
1021.09 1021.47 1022.27 1023.27 1024.44 1025.04 1025.49 1025.88 1026.90 1027.64 1027.94 1028.73 1029.12 1029.57 1029.98 1029.94 1029.93 1029.80 1029.91 1030.04 1030.01 1029.89 1030.19 1030.64 1031.03 1031.28 1031.53 1031.67 1031.68 1031.63 1032.21 1031.94 1032.31 1031.80 1032.28 1032.21 1032.38 1032.22 1032.34 1032.43 1032.49 1032.42 1032.28 1032.30 1032.32 1032.31 1032.19 1032.11 1032.04 1031.98 1031.97 1031.95 1031.88 1031.79
Thickness
5326 5329 5330 5327 5325 5324 5324 5325 5327 5331 5335 5340 5345 5350 5352 5349 5346 5341 5354 5357 5361 5365 5378 5392 5401 5397 5398 5398 5407 5413 5406 5410 5413 5417 5424 5434 5438 5456 5469 5476 5476 5481 5480 5483 5488 5487 5500 5525 5525 5524 5535 5539 5540 5543
5336 5339 5343 5339 5335 5334 5334 5335 5337 5340 5343 5349 5355 5362 5359 5355 5353 5353 5358 5363 5362 5364 5378 5387 5399 5404 5410 5411 5410 5410 5426 5422 5424 5426 5427 5435 5436 5438 5465 5473 5469 5482 5491 5494 5502 5514 5520 5518 5520 5524 5524 5529 5533 5535
5343 5345 5346 5345 5344 5343 5344 5345 5346 5348 5351 5354 5358 5361 5362 5362 5362 5361 5363 5370 5364 5360 5373 5380 5390 5400 5403 5409 5413 5410 5419 5425 5427 5432 5431 5437 5443 5443 5456 5462 5480 5476 5481 5490 5493 5514 5516 5516 5510 5501 5506 5515 5520 5526
5349 5351 5352 5353 5353 5353 5353 5354 5355 5356 5358 5359 5361 5363 5365 5366 5364 5362 5363 5368 5367 5368 5375 5380 5388 5397 5404 5405 5407 5414 5419 5423 5426 5424 5425 5429 5437 5447 5454 5471 5472 5485 5480 5486 5497 5503 5504 5505 5487 5484 5491 5497 5501 5504
5355 5359 5362 5360 5358 5358 5359 5360 5361 5362 5365 5367 5368 5367 5367 5367 5364 5360 5359 5364 5365 5373 5371 5374 5385 5395 5399 5400 5403 5409 5412 5417 5421 5416 5414 5424 5430 5438 5437 5448 5464 5468 5477 5480 5492 5465 5465 5473 5476 5470 5473 5477 5481 5481
5359 5360 5361 5360 5361 5363 5363 5363 5364 5366 5369 5371 5370 5369 5368 5367 5363 5356 5356 5360 5365 5365 5362 5368 5380 5387 5394 5399 5402 5405 5409 5411 5413 5414 5416 5423 5433 5438 5435 5449 5449 5446 5444 5447 5455 5449 5452 5457 5459 5449 5452 5454 5461 5459
5360 5360 5361 5362 5363 5363 5363 5364 5365 5366 5367 5369 5370 5370 5368 5365 5362 5358 5365 5378 5369 5361 5359 5362 5374 5385 5389 5391 5394 5400 5404 5405 5409 5413 5415 5418 5428 5436 5425 5442 5419 5421 5421 5427 5432 5435 5448 5445 5438 5431 5432 5436 5439 5440
5359 5362 5363 5362 5363 5363 5364 5364 5363 5363 5365 5366 5366 5367 5366 5361 5358 5359 5368 5372 5369 5359 5358 5360 5371 5381 5388 5386 5389 5394 5396 5399 5404 5406 5409 5421 5421 5419 5432 5398 5399 5399 5403 5416 5412 5415 5415 5422 5420 5415 5415 5418 5420 5422
5360 5360 5361 5361 5358 5359 5361 5362 5362 5364 5366 5364 5361 5361 5358 5356 5358 5364 5362 5363 5365 5362 5362 5365 5370 5385 5384 5389 5391 5391 5397 5398 5407 5410 5413 5410 5400 5412 5380 5379 5379 5379 5383 5389 5396 5405 5407 5409 5404 5399 5399 5402 5404 5401
5361 5360 5360 5362 5361 5360 5361 5364 5359 5359 5360 5357 5358 5354 5351 5359 5362 5362 5356 5357 5356 5360 5364 5370 5371 5382 5383 5388 5392 5391 5390 5397 5404 5404 5392 5386 5374 5362 5362 5361 5362 5364 5371 5377 5386 5393 5389 5393 5389 5385 5384 5383 5383 5383
5362 5363 5362 5362 5363 5363 5362 5359 5357 5356 5358 5357 5360 5365 5361 5360 5363 5362 5359 5359 5360 5362 5366 5372 5374 5387 5380 5391 5395 5388 5393 5394 5407 5397 5393 5378 5369 5358 5352 5353 5354 5355 5358 5361 5362 5363 5365 5369 5371 5369 5367 5363 5360 5359
5365 5365 5364 5366 5368 5368 5365 5368 5369 5368 5367 5369 5369 5359 5354 5353 5357 5366 5360 5362 5370 5379 5374 5376 5382 5382 5384 5382 5393 5390 5399 5394 5402 5377 5376 5362 5351 5343 5342 5343 5343 5346 5347 5347 5347 5348 5350 5353 5354 5352 5348 5345 5343 5341
5367 5368 5367 5366 5367 5367 5370 5372 5372 5374 5374 5371 5363 5349 5350 5332 5327 5336 5362 5364 5366 5360 5364 5377 5386 5383 5389 5397 5398 5405 5403 5378 5371 5361 5350 5343 5337 5335 5334 5335 5333 5333 5334 5334 5330 5329 5330 5332 5333 5332 5328 5326 5325 5325
5368 5369 5369 5369 5370 5370 5373 5377 5380 5381 5375 5359 5353 5326 5322 5311 5320 5327 5330 5338 5346 5356 5362 5374 5387 5385 5381 5384 5384 5384 5356 5362 5345 5342 5333 5330 5326 5323 5322 5322 5323 5320 5320 5319 5317 5315 5314 5313 5312 5310 5308 5305 5304 5302
5369 5371 5372 5371 5372 5374 5378 5379 5380 5378 5356 5337 5332 5312 5312 5310 5316 5322 5327 5338 5342 5349 5362 5378 5367 5372 5366 5361 5350 5352 5345 5329 5332 5327 5318 5315 5312 5312 5311 5310 5309 5308 5306 5303 5300 5298 5296 5295 5293 5290 5287 5286 5285 5284
5370 5373 5372 5373 5374 5376 5378 5378 5374 5365 5340 5320 5303 5304 5301 5309 5312 5315 5321 5332 5339 5344 5358 5364 5353 5351 5343 5343 5332 5315 5336 5318 5308 5302 5303 5301 5298 5296 5296 5297 5296 5294 5292 5289 5286 5284 5281 5278 5276 5274 5271 5269 5265 5263
5370 5366 5369 5373 5376 5377 5380 5374 5360 5337 5316 5302 5292 5290 5294 5298 5303 5310 5318 5328 5334 5347 5350 5350 5339 5333 5335 5323 5311 5308 5299 5297 5299 5295 5293 5290 5288 5285 5285 5284 5281 5279 5277 5275 5273 5271 5269 5266 5265 5265 5262 5256 5253 5249
5366 5367 5372 5377 5380 5378 5368 5358 5339 5318 5294 5288 5288 5291 5295 5298 5304 5311 5318 5326 5339 5343 5339 5330 5331 5316 5309 5310 5301 5295 5292 5290 5287 5283 5279 5275 5274 5273 5272 5270 5267 5266 5264 5261 5260 5258 5257 5256 5255 5250 5245 5239 5235 5229
5366 5369 5374 5379 5382 5374 5356 5339 5332 5302 5287 5288 5292 5296 5300 5300 5303 5309 5318 5323 5328 5332 5330 5318 5309 5304 5298 5295 5292 5288 5285 5282 5276 5269 5265 5261 5260 5259 5258 5256 5254 5251 5250 5249 5246 5243 5239 5236 5234 5231 5226 5221 5215 5210
5367 5371 5375 5379 5383 5366 5347 5329 5327 5313 5296 5294 5297 5296 5295 5293 5296 5302 5309 5318 5323 5319 5303 5291 5284 5285 5288 5286 5284 5280 5275 5272 5272 5265 5257 5253 5250 5249 5247 5246 5242 5238 5236 5232 5229 5227 5224 5218 5211 5205 5200 5195 5191 5183
5365 5368 5373 5376 5369 5359 5340 5330 5319 5314 5306 5305 5306 5304 5298 5300 5299 5300 5303 5310 5308 5292 5279 5273 5273 5273 5275 5275 5274 5273 5269 5268 5265 5262 5253 5245 5240 5238 5233 5229 5226 5222 5218 5213 5210 5203 5199 5193 5186 5179 5173 5165 5159 5156
5359 5367 5366 5370 5360 5350 5337 5331 5329 5324 5326 5319 5316 5311 5297 5291 5289 5292 5294 5290 5277 5268 5270 5268 5268 5269 5268 5264 5261 5261 5257 5255 5250 5245 5240 5236 5230 5224 5217 5212 5210 5202 5197 5192 5187 5178 5172 5164 5156 5150 5145 5139 5135 5131
5361 5364 5360 5359 5347 5337 5329 5333 5333 5334 5325 5320 5313 5303 5290 5281 5286 5291 5275 5272 5264 5261 5262 5262 5261 5259 5257 5253 5251 5248 5246 5244 5236 5229 5222 5217 5211 5205 5201 5195 5189 5182 5175 5165 5157 5149 5141 5133 5127 5124 5120 5118 5116 5112
5359 5346 5335 5333 5339 5323 5318 5316 5332 5324 5319 5314 5304 5289 5284 5281 5283 5274 5264 5258 5254 5255 5256 5256 5255 5254 5249 5243 5238 5234 5229 5226 5219 5212 5208 5203 5196 5187 5180 5172 5163 5156 5148 5140 5131 5124 5117 5112 5107 5108 5103 5102 5099 5099
5345 5321 5327 5317 5322 5323 5311 5301 5304 5313 5296 5291 5291 5280 5278 5284 5270 5255 5252 5251 5245 5239 5239 5243 5242 5236 5229 5223 5221 5217 5214 5212 5207 5198 5189 5185 5177 5169 5160 5151 5142 5134 5125 5120 5112 5106 5099 5093 5092 5092 5091 5091 5092 5090
5318 5311 5315 5311 5312 5327 5312 5303 5295 5296 5294 5289 5277 5272 5268 5265 5257 5244 5252 5237 5241 5232 5224 5223 5226 5224 5220 5216 5211 5205 5199 5195 5190 5182 5172 5167 5160 5150 5141 5133 5126 5117 5108 5101 5096 5091 5086 5080 5080 5081 5082 5081 5076 5080
5298 5296 5314 5310 5318 5319 5301 5295 5300 5294 5281 5279 5266 5253 5250 5232 5224 5242 5239 5232 5231 5221 5220 5217 5219 5215 5208 5199 5192 5187 5182 5179 5174 5164 5154 5147 5139 5132 5124 5116 5109 5102 5093 5087 5082 5080 5079 5077 5076 5075 5075 5074 5074 5074
5297 5301 5298 5278 5287 5287 5272 5269 5265 5263 5272 5278 5266 5240 5229 5224 5239 5233 5229 5222 5217 5213 5208 5203 5200 5197 5191 5183 5177 5171 5164 5158 5152 5145 5137 5128 5119 5111 5105 5099 5094 5090 5085 5081 5078 5075 5075 5075 5074 5073 5072 5073 5072 5069
5286 5278 5285 5261 5267 5262 5259 5249 5253 5262 5260 5250 5238 5237 5239 5231 5220 5221 5218 5214 5208 5205 5198 5190 5180 5175 5170 5165 5158 5153 5148 5142 5138 5124 5116 5112 5103 5100 5091 5088 5085 5082 5079 5079 5078 5076 5076 5075 5073 5072 5070 5068 5064 5060
5280 5275 5268 5246 5246 5246 5237 5242 5242 5240 5246 5247 5251 5244 5230 5220 5214 5211 5208 5204 5199 5190 5179 5175 5166 5165 5158 5155 5146 5139 5129 5122 5118 5114 5107 5101 5095 5087 5082 5081 5080 5077 5075 5075 5075 5074 5073 5070 5068 5065 5062 5060 5057 5055
5275 5268 5264 5254 5245 5241 5237 5228 5238 5239 5230 5229 5219 5215 5213 5205 5203 5197 5191 5183 5178 5173 5171 5164 5156 5146 5145 5136 5131 5124 5118 5109 5100 5095 5090 5085 5080 5077 5074 5072 5071 5070 5069 5069 5068 5066 5064 5062 5059 5057 5055 5052 5048 5043
5255 5242 5253 5247 5236 5234 5229 5217 5211 5213 5205 5213 5205 5190 5192 5192 5183 5186 5179 5176 5172 5167 5157 5150 5148 5144 5132 5123 5115 5108 5102 5098 5090 5085 5080 5076 5072 5068 5066 5065 5064 5063 5062 5061 5059 5058 5055 5053 5051 5049 5046 5043 5039 5035
5250 5249 5240 5241 5234 5227 5222 5222 5214 5206 5195 5192 5186 5171 5164 5174 5176 5175 5168 5164 5163 5159 5150 5143 5135 5126 5119 5111 5105 5097 5091 5086 5082 5077 5072 5069 5066 5064 5061 5060 5058 5056 5055 5054 5051 5049 5048 5046 5044 5041 5038 5034 5031 5028